{"data":{"norad_id":57036,"intl_designator":"2023-085AJ","name":"2023-085AJ","alt_names":[],"object_type":"PAYLOAD","status":"ACTIVE","operator":null,"country":"PRC","launch_date":"2023-06-15","launch_site_code":"TAISC","launch_vehicle":null,"mission":null,"orbit_class":"UNKNOWN","rcs_meters":null,"size_class":null,"mass_kg":null,"dimensions":null,"purposes":[],"wikipedia_slug":null,"has_3d_model":false,"image_url":null,"decayed_at":null,"tle_current":{"epoch":"2026-09-21T20:55:17.783904Z","epoch_age_seconds":81407,"freshness":"FRESH","line1":"1 57036U 23085AJ  26264.87173361  .00003905  00000+0  18942-3 0  9998","line2":"2 57036  97.4913   9.4742 0008021 102.7578 257.4553 15.19065210180991","mean_motion":15.1906521,"eccentricity":0.0008021,"inclination_deg":97.4913,"raan_deg":9.4742,"arg_perigee_deg":102.7578,"mean_anomaly_deg":257.4553,"bstar":0.00018942,"rev_number":18099,"period_min":94.795140493014,"perigee_km":503.14055817441,"apogee_km":514.18836507915,"semimajor_km":6886.8014616268,"source":"CELESTRAK","updated_at":"2026-09-22T09:00:25.999484Z"}}}